Location: Most
(50.5133°N, 13.6207°E)
Time: 14:25:19
(UTC+02:00)

ISS - Pass Details

Date: 18 September 2017
Orbit: 402 x 407 km, 51.6° (Epoch: 21 September)

Event Time Altitude Azimuth Distance (km) Brightness Sun altitude
Exits shadow 05:55:12 12° 265° (W) 1,339 -1.9 -8.8°
Maximum altitude 05:57:27 23° 216° (SW) 931 -2.4 -8.4°
Drops below altitude 10° 06:00:05 10° 162° (SSE) 1,463 -0.9 -8.0°
Sets 06:02:25 0° 147° (SSE) 2,319 0.3 -7.6°
